Home   Weather   Montreal   Past weeks

Flag for Canada Past Weather in Montreal, Quebec, Canada — Yesterday and Last 2 Weeks

Now
52 °F

Low clouds.


Feels Like: 47 °F
Forecast: 52 / 67 °F
Wind: 13 mph from Northeast

Location: Montreal - Pierre Elliot Trudeau International Aiport

Current Time: Sep 28, 2016 at 4:44:08 AM

Latest Report: Sep 28, 2016 at 4:00 AM


Visibility: 10 mi

Pressure: 30.09 "Hg

Humidity: 94%

Dew Point: 50 °F

Location of MontrealLocation

Past Weather in Montreal — Graph

°F

Montreal Temperature Yesterday

Maximum temperature yesterday: 70 °F (at 2:00 PM)
Minimum temperature yesterday: 55 °F (at 2:00 AM)
Average temperature yesterday: 61 °F

High & Low Weather Summary for the Past Weeks

 TemperatureHumidityPressure
High79 °F (Sep 13, 2:00 PM)100% (Sep 20, 6:00 AM)30.36 "Hg (Sep 20, 6:00 AM)
Low41 °F (Sep 26, 5:00 AM)30% (Sep 25, 3:00 PM)29.80 "Hg (Sep 27, 4:00 AM)
Average62 °F67%30.07 "Hg
* Reported Sep 13 3:00 AM — Sep 28 3:00 AM, Montreal, Weather by CustomWeather, © 2016

Note: Actual official high and low records may vary slightly from our data, if they occured in-between our weather recording intervals... More about our weather records

Advertising

Montreal Weather History for the Previous 24 Hours

Scroll right to see more
 ConditionsComfort  
Time TempWeatherWind HumidityBarometerVisibility
3:00 AM
Wed, Sep 28
52 °FPassing clouds.12 mph94%30.07 "Hg15 mi
2:47 AM52 °FPassing clouds.12 mph94%30.07 "Hg15 mi
2:00 AM54 °FPartly cloudy.10 mph88%30.06 "Hg15 mi
1:00 AM55 °FOvercast.13 mph88%30.03 "Hg15 mi
12:00 AM57 °FOvercast.10 mph77%30.02 "Hg15 mi
11:00 PM
Tue, Sep 27
59 °FPassing clouds.5 mph72%30.01 "Hg15 mi
10:00 PM57 °FPassing clouds.2 mph77%29.97 "Hg15 mi
9:00 PM61 °FPassing clouds.3 mph68%29.95 "Hg15 mi
8:00 PM63 °FPassing clouds.6 mph59%29.93 "Hg15 mi
7:00 PM64 °FPassing clouds.5 mph56%29.90 "Hg30 mi
6:00 PM64 °FScattered clouds.7 mph60%29.88 "Hg30 mi
5:00 PM68 °FPassing clouds.6 mph49%29.85 "Hg30 mi
4:00 PM66 °FPartly sunny.7 mph52%29.85 "Hg30 mi
3:00 PM66 °FPartly sunny.10 mph49%29.85 "Hg30 mi
2:00 PM70 °FPartly sunny.13 mph43%29.85 "Hg30 mi
1:00 PM66 °FPartly sunny.10 mph49%29.85 "Hg30 mi
12:00 PM66 °FScattered clouds.8 mph64%29.85 "Hg30 mi
11:00 AM64 °FPassing clouds.10 mph68%29.85 "Hg30 mi
10:00 AM63 °FPassing clouds.6 mph68%29.85 "Hg30 mi
9:00 AM61 °FPassing clouds.8 mph83%29.85 "Hg15 mi
8:00 AM57 °FPassing clouds.12 mph94%29.84 "Hg15 mi
7:00 AM55 °FPassing clouds.8 mph94%29.83 "Hg15 mi
6:00 AM57 °FPassing clouds.8 mph94%29.83 "Hg15 mi
5:00 AM57 °FPassing clouds.5 mph94%29.81 "Hg15 mi
4:00 AM57 °FMostly cloudy.7 mph94%29.80 "Hg20 mi
Weather by CustomWeather, © 2016

See weather overviewHow to use our weather pages